When you browse on this site, cookies collect data to enhance your experience and personalize the content and advertising you see.
Visit our Privacy Policy to learn more. By continuing to use the site, you agree to this use of cookies and data.
  • In United Kingdom
  • List of Countries
  • For 7 days
  • Water Temperature
  • Satellite Maps
  • Weather Map
  • Weather Widgets
  • user-avatar
    Login

    Hourly Weather Kandahar

    Today, 20 May, Monday

    Time Temperature Precipitation Wind Pressure Humidity
    00:00 +28°C° 0 mm 2 mps 674 mmHg 16%
    01:00 +28°C° 0 mm 1 mps 674 mmHg 16%
    02:00 +27°C° 0 mm 2 mps 674 mmHg 21%
    03:00 +26°C° 0 mm 2 mps 674 mmHg 25%
    04:00 +26°C° 0 mm 2 mps 674 mmHg 30%
    05:00 +27°C° 0 mm 2 mps 675 mmHg 31%
    06:00 +27°C° 0 mm 2 mps 675 mmHg 32%
    07:00 +28°C° 0 mm 1 mps 676 mmHg 34%
    08:00 +29°C° 0 mm 1 mps 676 mmHg 28%
    09:00 +31°C° 0 mm 1 mps 676 mmHg 22%
    10:00 +32°C° 0 mm 1 mps 676 mmHg 16%
    11:00 +34°C° 0 mm 2 mps 676 mmHg 14%
    12:00 +35°C° 0 mm 2 mps 676 mmHg 11%
    13:00 +36°C° 0 mm 2 mps 676 mmHg 9%
    14:00 +36°C° 0 mm 3 mps 675 mmHg 8%
    15:00 +37°C° 0 mm 3 mps 675 mmHg 7%
    16:00 +37°C° 0 mm 3 mps 674 mmHg 7%
    17:00 +36°C° 0 mm 3 mps 674 mmHg 7%
    18:00 +35°C° 0 mm 3 mps 674 mmHg 7%
    19:00 +34°C° 0 mm 3 mps 674 mmHg 7%
    20:00 +32°C° 0 mm 2 mps 674 mmHg 8%
    21:00 +31°C° 0 mm 2 mps 674 mmHg 9%
    22:00 +30°C° 0 mm 1 mps 674 mmHg 10%
    23:00 +29°C° 0 mm 1 mps 674 mmHg 10%

    Tomorrow, 21 May, Tuesday

    Time Temperature Precipitation Wind Pressure Humidity
    00:00 +29°C° 0 mm 1 mps 674 mmHg 11%
    01:00 +28°C° 0 mm 1 mps 673 mmHg 11%
    02:00 +28°C° 0 mm 1 mps 673 mmHg 19%
    03:00 +27°C° 0 mm 2 mps 673 mmHg 26%
    04:00 +27°C° 0 mm 3 mps 673 mmHg 34%
    05:00 +28°C° 0 mm 3 mps 674 mmHg 32%
    06:00 +29°C° 0 mm 2 mps 674 mmHg 30%
    07:00 +29°C° 0 mm 2 mps 675 mmHg 29%
    08:00 +31°C° 0 mm 1 mps 675 mmHg 25%
    09:00 +32°C° 0 mm 1 mps 676 mmHg 21%
    10:00 +33°C° 0 mm 1 mps 676 mmHg 17%
    11:00 +35°C° 0 mm 2 mps 676 mmHg 17%
    12:00 +35°C° 0 mm 2 mps 676 mmHg 16%
    13:00 +36°C° 0 mm 3 mps 676 mmHg 16%
    14:00 +35°C° 0 mm 3 mps 675 mmHg 18%
    15:00 +34°C° 0 mm 3 mps 674 mmHg 20%
    16:00 +33°C° 0 mm 3 mps 674 mmHg 23%
    17:00 +33°C° 0 mm 4 mps 674 mmHg 24%
    18:00 +32°C° 0 mm 4 mps 674 mmHg 26%
    19:00 +32°C° 0 mm 5 mps 674 mmHg 28%
    20:00 +30°C° 0 mm 4 mps 674 mmHg 33%
    21:00 +29°C° 0 mm 3 mps 674 mmHg 38%
    22:00 +28°C° 0 mm 3 mps 674 mmHg 43%
    23:00 +27°C° 0.3 mm 2 mps 674 mmHg 43%

    Day after tomorrow, 22 May, Wednesday

    Time Temperature Precipitation Wind Pressure Humidity
    00:00 +27°C° 0.3 mm 1 mps 673 mmHg 43%
    01:00 +27°C° 0.3 mm 1 mps 673 mmHg 43%
    02:00 +26°C° 0 mm 1 mps 673 mmHg 44%
    03:00 +26°C° 0 mm 1 mps 673 mmHg 45%
    04:00 +26°C° 0 mm 1 mps 672 mmHg 46%
    05:00 +26°C° 0 mm 1 mps 673 mmHg 44%
    06:00 +27°C° 0 mm 1 mps 673 mmHg 42%
    07:00 +27°C° 0 mm 1 mps 673 mmHg 40%
    08:00 +28°C° 0 mm 1 mps 673 mmHg 36%
    09:00 +30°C° 0 mm 1 mps 673 mmHg 33%
    10:00 +31°C° 0 mm 2 mps 673 mmHg 29%
    11:00 +31°C° 0 mm 2 mps 673 mmHg 28%
    12:00 +32°C° 0 mm 2 mps 673 mmHg 26%
    13:00 +34°C° 0 mm 3 mps 672 mmHg 24%
    14:00 +34°C° 0 mm 3 mps 672 mmHg 23%
    15:00 +34°C° 0 mm 4 mps 672 mmHg 23%
    16:00 +35°C° 0 mm 4 mps 671 mmHg 22%
    17:00 +34°C° 0 mm 4 mps 671 mmHg 24%
    18:00 +33°C° 0 mm 4 mps 672 mmHg 26%
    19:00 +32°C° 0 mm 5 mps 672 mmHg 28%
    20:00 +32°C° 0 mm 4 mps 672 mmHg 30%
    21:00 +30°C° 0 mm 4 mps 672 mmHg 32%
    22:00 +29°C° 0 mm 4 mps 672 mmHg 34%
    23:00 +28°C° 0.7 mm 4 mps 672 mmHg 37%

    23 May, Thursday

    Time Temperature Precipitation Wind Pressure Humidity
    00:00 +27°C° 0.7 mm 3 mps 671 mmHg 41%
    01:00 +27°C° 0.7 mm 3 mps 671 mmHg 44%
    02:00 +26°C° 0 mm 3 mps 671 mmHg 47%
    03:00 +25°C° 0 mm 4 mps 671 mmHg 51%
    04:00 +25°C° 0 mm 4 mps 671 mmHg 54%
    05:00 +25°C° 0.1 mm 5 mps 671 mmHg 49%
    06:00 +24°C° 0.1 mm 6 mps 671 mmHg 43%
    07:00 +24°C° 0.1 mm 6 mps 672 mmHg 37%
    08:00 +26°C° 0 mm 6 mps 672 mmHg 34%
    09:00 +27°C° 0 mm 7 mps 673 mmHg 31%
    10:00 +28°C° 0 mm 7 mps 673 mmHg 27%
    11:00 +29°C° 0 mm 7 mps 673 mmHg 25%
    12:00 +31°C° 0 mm 8 mps 673 mmHg 22%
    13:00 +32°C° 0 mm 8 mps 672 mmHg 19%
    14:00 +32°C° 0 mm 9 mps 672 mmHg 19%
    15:00 +32°C° 0 mm 9 mps 672 mmHg 19%
    16:00 +32°C° 0 mm 9 mps 672 mmHg 19%
    17:00 +31°C° 0 mm 9 mps 672 mmHg 20%
    18:00 +29°C° 0 mm 8 mps 672 mmHg 21%
    19:00 +28°C° 0 mm 8 mps 673 mmHg 22%
    20:00 +27°C° 0 mm 6 mps 673 mmHg 23%
    21:00 +26°C° 0 mm 5 mps 673 mmHg 25%
    22:00 +26°C° 0 mm 4 mps 673 mmHg 26%
    23:00 +25°C° 0 mm 4 mps 673 mmHg 27%

    24 May, Friday

    Time Temperature Precipitation Wind Pressure Humidity
    00:00 +24°C° 0 mm 3 mps 673 mmHg 28%
    01:00 +24°C° 0 mm 3 mps 673 mmHg 29%
    02:00 +22°C° 0 mm 3 mps 672 mmHg 30%
    03:00 +22°C° 0 mm 3 mps 672 mmHg 31%
    04:00 +21°C° 0 mm 2 mps 672 mmHg 31%
    05:00 +22°C° 0 mm 3 mps 673 mmHg 29%
    06:00 +22°C° 0 mm 3 mps 673 mmHg 26%
    07:00 +22°C° 0 mm 3 mps 674 mmHg 24%
    08:00 +25°C° 0 mm 3 mps 674 mmHg 23%
    09:00 +26°C° 0 mm 3 mps 674 mmHg 22%
    10:00 +27°C° 0 mm 3 mps 675 mmHg 21%
    11:00 +28°C° 0 mm 4 mps 675 mmHg 20%
    12:00 +30°C° 0 mm 4 mps 674 mmHg 20%
    13:00 +32°C° 0 mm 4 mps 674 mmHg 19%
    14:00 +32°C° 0 mm 5 mps 674 mmHg 19%
    15:00 +33°C° 0 mm 5 mps 674 mmHg 18%
    16:00 +33°C° 0 mm 6 mps 674 mmHg 18%
    17:00 +33°C° 0 mm 6 mps 674 mmHg 18%
    18:00 +32°C° 0 mm 5 mps 674 mmHg 18%
    19:00 +30°C° 0 mm 5 mps 674 mmHg 18%
    20:00 +30°C° 0 mm 5 mps 674 mmHg 17%
    21:00 +29°C° 0 mm 5 mps 675 mmHg 16%
    22:00 +28°C° 0 mm 4 mps 675 mmHg 15%
    23:00 +28°C° 0 mm 4 mps 675 mmHg 17%

    25 May, Saturday

    Time Temperature Precipitation Wind Pressure Humidity
    00:00 +27°C° 0 mm 3 mps 674 mmHg 19%
    01:00 +26°C° 0 mm 3 mps 674 mmHg 21%
    02:00 +25°C° 0 mm 2 mps 674 mmHg 22%
    03:00 +25°C° 0 mm 2 mps 673 mmHg 24%
    04:00 +24°C° 0 mm 1 mps 673 mmHg 26%
    05:00 +25°C° 0 mm 1 mps 674 mmHg 25%
    06:00 +26°C° 0 mm 1 mps 674 mmHg 23%
    07:00 +27°C° 0 mm 1 mps 675 mmHg 22%
    08:00 +29°C° 0 mm 2 mps 675 mmHg 20%
    09:00 +30°C° 0 mm 2 mps 675 mmHg 17%
    10:00 +32°C° 0 mm 2 mps 675 mmHg 15%
    11:00 +34°C° 0 mm 2 mps 675 mmHg 14%
    12:00 +35°C° 0 mm 2 mps 674 mmHg 13%
    13:00 +36°C° 0 mm 3 mps 674 mmHg 11%
    14:00 +36°C° 0 mm 3 mps 674 mmHg 11%
    15:00 +37°C° 0 mm 4 mps 673 mmHg 10%
    16:00 +37°C° 0 mm 5 mps 673 mmHg 10%
    17:00 +36°C° 0 mm 5 mps 673 mmHg 11%
    18:00 +35°C° 0 mm 5 mps 673 mmHg 12%
    19:00 +34°C° 0 mm 4 mps 673 mmHg 12%
    20:00 +33°C° 0 mm 4 mps 673 mmHg 13%
    21:00 +33°C° 0 mm 4 mps 673 mmHg 14%
    22:00 +32°C° 0 mm 4 mps 673 mmHg 14%
    23:00 +30°C° 0 mm 3 mps 673 mmHg 16%
    Show more